Location: *
(40.7873°S, 98.7174°E)
Time: 23:00:39
(UTC+00:00)

Cosmos 1153 Rocket - Pass Details

Date: 11 October 2022
Orbit: 953 x 1007 km, 82.9° (Epoch: 09 December)

Event Time Altitude Azimuth Distance (km) Brightness Sun altitude
Rises 18:37:33 0° 185° (S) 3,677 8.2 -38.1°
Reaches altitude 10° 18:40:07 10° 181° (S) 2,720 7.4 -37.9°
Enters shadow 18:44:11 41° 162° (SSE) 1,373 5.5 -37.5°
